| time (UTC) | temp C | wind direction | speed KPH | gust KPH | rain 1hr cm | rain 24hr cm | rain mn cm | humidity % | barometer mb |
| 20260901135546 | 18 | 0 | 0.0 | 11.3 | 0.00 | 0.15 | 0.00 | 76 | 1021.0 |
| 20260901135046 | 18 | 248 | 0.0 | 11.3 | 0.00 | 0.15 | 0.00 | 77 | 1021.0 |
| 20260901134607 | 18 | 0 | 0.0 | 6.4 | 0.00 | 0.15 | 0.00 | 79 | 1021.1 |
| 20260901134047 | 18 | 0 | 0.0 | 4.8 | 0.00 | 0.15 | 0.00 | 79 | 1021.1 |
| 20260901133544 | 18 | 0 | 0.0 | 11.3 | 0.00 | 0.15 | 0.00 | 78 | 1021.0 |
| 20260901133110 | 18 | 0 | 0.0 | 11.3 | 0.00 | 0.15 | 0.00 | 78 | 1021.0 |
| 20260901132546 | 18 | 0 | 1.6 | 11.3 | 0.00 | 0.15 | 0.00 | 80 | 1021.0 |
| 20260901132050 | 18 | 0 | 0.0 | 6.4 | 0.00 | 0.15 | 0.00 | 81 | 1021.1 |
| 20260901131605 | 18 | 0 | 0.0 | 0.0 | 0.00 | 0.15 | 0.00 | 85 | 1021.0 |
| 20260901131045 | 17 | 0 | 0.0 | 0.0 | 0.00 | 0.15 | 0.00 | 84 | 1021.1 |
| 20260901130546 | 17 | 0 | 0.0 | 0.0 | 0.00 | 0.15 | 0.00 | 86 | 1021.2 |
| 20260901130108 | 17 | 0 | 0.0 | 4.8 | 0.00 | 0.15 | 0.00 | 86 | 1021.2 |
| 20260901125545 | 16 | 0 | 0.0 | 4.8 | 0.00 | 0.15 | 0.00 | 87 | 1021.1 |
| 20260901125048 | 16 | 0 | 0.0 | 0.0 | 0.00 | 0.15 | 0.00 | 88 | 1021.1 |
| 20260901124603 | 16 | 0 | 0.0 | 4.8 | 0.00 | 0.15 | 0.00 | 89 | 1021.2 |
| 20260901124047 | 16 | 0 | 0.0 | 6.4 | 0.00 | 0.15 | 0.00 | 89 | 1021.2 |
| 20260901123546 | 16 | 0 | 0.0 | 11.3 | 0.00 | 0.15 | 0.00 | 89 | 1021.3 |
| 20260901123110 | 16 | 0 | 0.0 | 27.4 | 0.00 | 0.13 | 0.00 | 88 | 1021.4 |
| 20260901122546 | 16 | 258 | 3.2 | 29.0 | 0.00 | 0.13 | 0.00 | 87 | 1021.3 |
| 20260901122048 | 16 | 272 | 1.6 | 29.0 | 0.00 | 0.13 | 0.00 | 86 | 1021.5 |
| 20260901121604 | 17 | 242 | 4.8 | 29.0 | 0.00 | 0.13 | 0.00 | 85 | 1021.4 |
| 20260901121045 | 17 | 0 | 8.0 | 43.5 | 0.00 | 0.13 | 0.00 | 81 | 1021.3 |
| 20260901120544 | 18 | 0 | 11.3 | 43.5 | 0.00 | 0.13 | 0.00 | 77 | 1021.0 |
| 20260901120120 | 19 | 222 | 4.8 | 43.5 | 0.00 | 0.13 | 0.00 | 76 | 1020.9 |
| 20260901115548 | 20 | 213 | 6.4 | 27.4 | 0.00 | 0.15 | 0.00 | 72 | 1020.5 |
| 20260901115045 | 20 | 0 | 3.2 | 25.7 | 0.00 | 0.15 | 0.00 | 71 | 1020.4 |
| 20260901114604 | 20 | 239 | 0.0 | 19.3 | 0.00 | 0.15 | 0.00 | 72 | 1020.4 |
| 20260901114045 | 20 | 0 | 3.2 | 20.9 | 0.00 | 0.15 | 0.00 | 71 | 1020.4 |
| 20260901113546 | 20 | 0 | 6.4 | 20.9 | 0.00 | 0.15 | 0.00 | 70 | 1020.4 |
| 20260901113107 | 21 | 0 | 3.2 | 19.3 | 0.00 | 0.15 | 0.00 | 71 | 1020.3 |
| 20260901112546 | 20 | 0 | 1.6 | 24.1 | 0.00 | 0.15 | 0.00 | 69 | 1020.4 |
| 20260901112045 | 20 | 251 | 0.0 | 24.1 | 0.00 | 0.15 | 0.00 | 70 | 1020.4 |
| 20260901111606 | 20 | 0 | 6.4 | 25.7 | 0.00 | 0.15 | 0.00 | 71 | 1020.4 |
| 20260901111046 | 20 | 273 | 8.0 | 25.7 | 0.00 | 0.15 | 0.00 | 73 | 1020.5 |
| 20260901110546 | 19 | 232 | 4.8 | 22.5 | 0.00 | 0.15 | 0.00 | 74 | 1020.4 |
| 20260901105542 | 20 | 0 | 1.6 | 17.7 | 0.00 | 0.15 | 0.00 | 75 | 1020.4 |
| 20260901105044 | 20 | 0 | 1.6 | 17.7 | 0.00 | 0.15 | 0.00 | 77 | 1020.4 |
| 20260901104601 | 19 | 0 | 1.6 | 14.5 | 0.00 | 0.15 | 0.00 | 79 | 1020.4 |
| 20260901104045 | 18 | 234 | 1.6 | 19.3 | 0.00 | 0.15 | 0.00 | 80 | 1020.4 |
| 20260901103545 | 18 | 249 | 4.8 | 19.3 | 0.00 | 0.15 | 0.00 | 79 | 1020.5 |
| 20260901103109 | 18 | 243 | 1.6 | 20.9 | 0.00 | 0.15 | 0.00 | 78 | 1020.5 |
| 20260901102546 | 19 | 226 | 0.0 | 20.9 | 0.00 | 0.15 | 0.00 | 78 | 1020.5 |
| 20260901102045 | 19 | 234 | 3.2 | 17.7 | 0.00 | 0.15 | 0.00 | 78 | 1020.6 |
| 20260901101608 | 19 | 0 | 3.2 | 17.7 | 0.00 | 0.15 | 0.00 | 79 | 1020.5 |
| 20260901101048 | 18 | 0 | 0.0 | 12.9 | 0.00 | 0.15 | 0.00 | 79 | 1020.6 |
| 20260901100546 | 18 | 219 | 0.0 | 12.9 | 0.00 | 0.15 | 0.00 | 82 | 1020.8 |
| 20260901100107 | 18 | 0 | 3.2 | 14.5 | 0.00 | 0.15 | 0.00 | 83 | 1020.7 |
| 20260901095545 | 17 | 0 | 0.0 | 17.7 | 0.00 | 0.15 | 0.00 | 83 | 1020.6 |
| 20260901095045 | 17 | 239 | 1.6 | 17.7 | 0.00 | 0.15 | 0.00 | 84 | 1020.7 |
| 20260901094605 | 17 | 232 | 1.6 | 12.9 | 0.00 | 0.15 | 0.00 | 84 | 1020.7 |
| 20260901094045 | 17 | 0 | 0.0 | 12.9 | 0.00 | 0.15 | 0.00 | 83 | 1020.8 |
| 20260901093544 | 17 | 0 | 0.0 | 14.5 | 0.00 | 0.15 | 0.00 | 83 | 1020.8 |
| 20260901093105 | 18 | 0 | 1.6 | 14.5 | 0.00 | 0.15 | 0.00 | 83 | 1020.7 |
| 20260901092546 | 18 | 229 | 0.0 | 11.3 | 0.00 | 0.15 | 0.00 | 84 | 1020.6 |
| 20260901092045 | 18 | 0 | 0.0 | 11.3 | 0.00 | 0.15 | 0.00 | 85 | 1020.7 |
| 20260901091602 | 17 | 237 | 0.0 | 11.3 | 0.00 | 0.15 | 0.00 | 85 | 1020.6 |
| 20260901091045 | 17 | 0 | 0.0 | 11.3 | 0.00 | 0.15 | 0.00 | 86 | 1020.5 |
| 20260901090550 | 17 | 208 | 0.0 | 12.9 | 0.00 | 0.15 | 0.00 | 87 | 1020.6 |
| 20260901090056 | 17 | 215 | 1.6 | 14.5 | 0.00 | 0.15 | 0.00 | 86 | 1020.6 |
| 20260901085544 | 17 | 215 | 0.0 | 17.7 | 0.00 | 0.15 | 0.00 | 86 | 1020.7 |
| 20260901085048 | 17 | 218 | 1.6 | 17.7 | 0.00 | 0.15 | 0.00 | 85 | 1020.7 |
| 20260901084600 | 17 | 238 | 0.0 | 14.5 | 0.00 | 0.15 | 0.00 | 85 | 1020.6 |
| 20260901084045 | 17 | 0 | 0.0 | 14.5 | 0.00 | 0.15 | 0.00 | 85 | 1020.4 |
| 20260901083541 | 17 | 0 | 0.0 | 14.5 | 0.00 | 0.15 | 0.00 | 87 | 1020.5 |
| 20260901083100 | 17 | 0 | 0.0 | 14.5 | 0.00 | 0.15 | 0.00 | 86 | 1020.5 |
| 20260901082543 | 17 | 242 | 0.0 | 14.5 | 0.00 | 0.15 | 0.00 | 85 | 1020.5 |
| 20260901082041 | 17 | 0 | 1.6 | 14.5 | 0.00 | 0.15 | 0.00 | 85 | 1020.4 |
| 20260901081555 | 17 | 0 | 0.0 | 19.3 | 0.00 | 0.15 | 0.00 | 85 | 1020.3 |
| 20260901081045 | 17 | 227 | 0.0 | 19.3 | 0.00 | 0.15 | 0.00 | 84 | 1020.2 |
| 20260901080545 | 17 | 0 | 3.2 | 19.3 | 0.00 | 0.15 | 0.00 | 83 | 1020.2 |
| 20260901080106 | 17 | 0 | 3.2 | 17.7 | 0.00 | 0.15 | 0.00 | 83 | 1020.2 |
| 20260901075547 | 17 | 229 | 3.2 | 17.7 | 0.00 | 0.15 | 0.00 | 83 | 1020.1 |
| 20260901075046 | 17 | 209 | 3.2 | 16.1 | 0.00 | 0.15 | 0.00 | 82 | 1020.1 |
| 20260901074601 | 17 | 0 | 0.0 | 25.7 | 0.00 | 0.15 | 0.00 | 83 | 1020.1 |
| 20260901074046 | 17 | 223 | 1.6 | 25.7 | 0.00 | 0.15 | 0.00 | 84 | 1020.0 |
| 20260901073545 | 17 | 220 | 0.0 | 11.3 | 0.00 | 0.15 | 0.00 | 85 | 1020.1 |
| 20260901073058 | 17 | 225 | 1.6 | 22.5 | 0.00 | 0.15 | 0.00 | 85 | 1019.9 |
| 20260901072542 | 17 | 221 | 0.0 | 22.5 | 0.00 | 0.15 | 0.00 | 84 | 1020.1 |
| 20260901072042 | 17 | 0 | 1.6 | 22.5 | 0.00 | 0.15 | 0.00 | 86 | 1020.0 |
| 20260901071633 | 17 | 0 | 0.0 | 12.9 | 0.00 | 0.15 | 0.00 | 87 | 1020.0 |
| 20260901071045 | 16 | 0 | 3.2 | 16.1 | 0.00 | 0.15 | 0.00 | 87 | 1020.0 |
| 20260901070544 | 16 | 0 | 1.6 | 16.1 | 0.00 | 0.15 | 0.00 | 87 | 1020.1 |
| 20260901070059 | 16 | 0 | 0.0 | 16.1 | 0.00 | 0.15 | 0.00 | 87 | 1020.0 |
| 20260901065545 | 16 | 0 | 0.0 | 16.1 | 0.00 | 0.15 | 0.00 | 87 | 1020.1 |
| 20260901065046 | 16 | 0 | 3.2 | 16.1 | 0.00 | 0.15 | 0.00 | 87 | 1020.1 |
| 20260901064606 | 16 | 0 | 4.8 | 17.7 | 0.00 | 0.15 | 0.00 | 87 | 1020.1 |
| 20260901064042 | 16 | 0 | 3.2 | 17.7 | 0.00 | 0.15 | 0.00 | 88 | 1020.1 |
| 20260901063545 | 16 | 0 | 3.2 | 17.7 | 0.00 | 0.15 | 0.00 | 88 | 1020.0 |
| 20260901063105 | 16 | 223 | 1.6 | 12.9 | 0.00 | 0.15 | 0.00 | 88 | 1020.0 |
| 20260901062545 | 16 | 0 | 1.6 | 12.9 | 0.00 | 0.15 | 0.00 | 88 | 1020.0 |
| 20260901062048 | 16 | 0 | 0.0 | 9.7 | 0.00 | 0.15 | 0.00 | 89 | 1019.8 |
| 20260901061603 | 16 | 226 | 0.0 | 8.0 | 0.00 | 0.15 | 0.00 | 90 | 1019.8 |
| 20260901061045 | 16 | 0 | 0.0 | 0.0 | 0.00 | 0.15 | 0.00 | 90 | 1019.8 |
| 20260901060546 | 15 | 0 | 0.0 | 11.3 | 0.00 | 0.15 | 0.00 | 90 | 1019.7 |
| 20260901060117 | 15 | 0 | 0.0 | 11.3 | 0.00 | 0.15 | 0.00 | 90 | 1019.7 |
| 20260901055545 | 15 | 0 | 0.0 | 11.3 | 0.00 | 0.15 | 0.00 | 91 | 1019.6 |
| 20260901055046 | 15 | 229 | 0.0 | 11.3 | 0.00 | 0.15 | 0.00 | 91 | 1019.6 |
| 20260901054606 | 15 | 0 | 0.0 | 11.3 | 0.00 | 0.15 | 0.00 | 91 | 1019.7 |
| 20260901054045 | 15 | 0 | 0.0 | 11.3 | 0.00 | 0.15 | 0.00 | 91 | 1019.6 |
| 20260901053546 | 15 | 0 | 0.0 | 9.7 | 0.00 | 0.15 | 0.00 | 91 | 1019.5 |
| 20260901053114 | 15 | 0 | 0.0 | 0.0 | 0.00 | 0.15 | 0.00 | 91 | 1019.5 |
| 20260901052546 | 15 | 0 | 0.0 | 0.0 | 0.00 | 0.15 | 0.00 | 91 | 1019.5 |
| 20260901052045 | 15 | 0 | 0.0 | 0.0 | 0.00 | 0.15 | 0.00 | 91 | 1019.4 |
| 20260901051611 | 15 | 0 | 0.0 | 0.0 | 0.00 | 0.15 | 0.00 | 91 | 1019.3 |
| 20260901051045 | 15 | 0 | 0.0 | 1.6 | 0.00 | 0.15 | 0.00 | 90 | 1019.4 |
| 20260901050546 | 15 | 0 | 0.0 | 1.6 | 0.00 | 0.15 | 0.00 | 90 | 1019.2 |
| 20260901050107 | 15 | 0 | 0.0 | 0.0 | 0.00 | 0.15 | 0.00 | 90 | 1019.2 |
| 20260901045544 | 15 | 0 | 0.0 | 8.0 | 0.00 | 0.15 | 0.00 | 90 | 1019.1 |
| 20260901045047 | 15 | 0 | 0.0 | 8.0 | 0.00 | 0.15 | 0.00 | 90 | 1019.1 |
| 20260901044609 | 15 | 0 | 0.0 | 8.0 | 0.00 | 0.15 | 0.00 | 90 | 1019.1 |
| 20260901044045 | 15 | 0 | 0.0 | 8.0 | 0.00 | 0.15 | 0.00 | 90 | 1018.9 |
| 20260901043546 | 15 | 0 | 0.0 | 0.0 | 0.00 | 0.15 | 0.00 | 90 | 1018.9 |
| 20260901043126 | 15 | 0 | 0.0 | 9.7 | 0.00 | 0.15 | 0.00 | 90 | 1018.8 |
| 20260901042545 | 15 | 0 | 0.0 | 9.7 | 0.00 | 0.15 | 0.00 | 91 | 1018.7 |
| 20260901042046 | 15 | 0 | 0.0 | 9.7 | 0.00 | 0.15 | 0.00 | 91 | 1018.6 |
| 20260901041603 | 15 | 0 | 0.0 | 3.2 | 0.00 | 0.15 | 0.00 | 91 | 1018.6 |
| 20260901041047 | 15 | 0 | 0.0 | 3.2 | 0.00 | 0.15 | 0.00 | 91 | 1018.8 |
| 20260901040546 | 15 | 0 | 0.0 | 0.0 | 0.00 | 0.15 | 0.00 | 91 | 1018.7 |
| 20260901040125 | 15 | 0 | 0.0 | 0.0 | 0.00 | 0.15 | 0.00 | 91 | 1018.7 |
| 20260901035547 | 15 | 0 | 0.0 | 0.0 | 0.00 | 0.15 | 0.00 | 91 | 1018.6 |
| 20260901035047 | 15 | 0 | 0.0 | 0.0 | 0.00 | 0.15 | 0.00 | 91 | 1018.6 |
| 20260901034610 | 15 | 0 | 0.0 | 0.0 | 0.00 | 0.15 | 0.00 | 90 | 1018.5 |
| 20260901034046 | 16 | 0 | 0.0 | 1.6 | 0.00 | 0.15 | 0.00 | 90 | 1018.4 |
| 20260901033546 | 16 | 0 | 0.0 | 6.4 | 0.00 | 0.15 | 0.00 | 90 | 1018.5 |
| 20260901033136 | 16 | 0 | 0.0 | 16.1 | 0.00 | 0.15 | 0.00 | 90 | 1018.5 |
| 20260901032548 | 16 | 0 | 0.0 | 16.1 | 0.00 | 0.15 | 0.00 | 90 | 1018.4 |
| 20260901032047 | 16 | 237 | 0.0 | 14.5 | 0.00 | 0.15 | 0.00 | 90 | 1018.4 |
| 20260901031623 | 16 | 0 | 0.0 | 12.9 | 0.00 | 0.15 | 0.00 | 90 | 1018.4 |
| 20260901031047 | 16 | 232 | 0.0 | 8.0 | 0.00 | 0.15 | 0.00 | 90 | 1018.4 |
| 20260901030550 | 16 | 0 | 0.0 | 6.4 | 0.00 | 0.15 | 0.00 | 90 | 1018.4 |
| 20260901030105 | 16 | 0 | 0.0 | 14.5 | 0.00 | 0.15 | 0.00 | 90 | 1018.5 |
| 20260901025547 | 16 | 0 | 0.0 | 14.5 | 0.00 | 0.18 | 0.00 | 90 | 1018.5 |
| 20260901025047 | 16 | 248 | 0.0 | 11.3 | 0.00 | 0.18 | 0.00 | 90 | 1018.4 |
| 20260901024603 | 16 | 240 | 0.0 | 0.0 | 0.00 | 0.18 | 0.00 | 90 | 1018.4 |
| 20260901024047 | 16 | 0 | 0.0 | 0.0 | 0.00 | 0.18 | 0.00 | 90 | 1018.4 |
| 20260901023546 | 16 | 0 | 0.0 | 4.8 | 0.00 | 0.18 | 0.00 | 90 | 1018.4 |
| 20260901023109 | 16 | 0 | 0.0 | 12.9 | 0.00 | 0.18 | 0.00 | 90 | 1018.4 |
| 20260901022546 | 16 | 0 | 1.6 | 12.9 | 0.00 | 0.18 | 0.00 | 90 | 1018.3 |
| 20260901022046 | 16 | 0 | 1.6 | 9.7 | 0.00 | 0.18 | 0.00 | 90 | 1018.3 |
| 20260901021558 | 16 | 0 | 0.0 | 16.1 | 0.00 | 0.18 | 0.00 | 90 | 1018.3 |
| 20260901021048 | 16 | 0 | 0.0 | 16.1 | 0.00 | 0.18 | 0.00 | 90 | 1018.4 |
| 20260901020545 | 16 | 0 | 0.0 | 12.9 | 0.00 | 0.18 | 0.00 | 90 | 1018.3 |
| 20260901020057 | 16 | 0 | 1.6 | 16.1 | 0.00 | 0.18 | 0.00 | 90 | 1018.3 |
| 20260901015543 | 16 | 205 | 0.0 | 16.1 | 0.00 | 0.18 | 0.00 | 90 | 1018.2 |
| 20260901015047 | 16 | 0 | 1.6 | 14.5 | 0.00 | 0.18 | 0.00 | 89 | 1018.2 |
| 20260901014608 | 16 | 0 | 0.0 | 12.9 | 0.00 | 0.18 | 0.00 | 90 | 1018.3 |
| 20260901014046 | 16 | 0 | 1.6 | 12.9 | 0.00 | 0.18 | 0.00 | 90 | 1018.3 |
| 20260901013546 | 16 | 228 | 0.0 | 9.7 | 0.00 | 0.18 | 0.00 | 90 | 1018.3 |
| 20260901013104 | 16 | 221 | 0.0 | 8.0 | 0.00 | 0.18 | 0.00 | 90 | 1018.2 |
| 20260901012546 | 16 | 0 | 1.6 | 12.9 | 0.00 | 0.18 | 0.00 | 90 | 1018.3 |
| 20260901012048 | 16 | 0 | 0.0 | 12.9 | 0.00 | 0.18 | 0.00 | 90 | 1018.2 |
| 20260901011604 | 16 | 0 | 0.0 | 12.9 | 0.00 | 0.18 | 0.00 | 90 | 1018.3 |
| 20260901011047 | 16 | 0 | 1.6 | 11.3 | 0.00 | 0.18 | 0.00 | 90 | 1018.2 |
| 20260901010547 | 15 | 0 | 0.0 | 11.3 | 0.00 | 0.18 | 0.00 | 90 | 1018.2 |
| 20260901010104 | 15 | 0 | 0.0 | 11.3 | 0.00 | 0.18 | 0.00 | 90 | 1018.2 |
| 20260901005546 | 15 | 0 | 0.0 | 11.3 | 0.00 | 0.18 | 0.00 | 90 | 1018.2 |
| 20260901005046 | 15 | 0 | 0.0 | 9.7 | 0.00 | 0.18 | 0.00 | 90 | 1018.2 |
| 20260901004609 | 15 | 0 | 0.0 | 14.5 | 0.00 | 0.18 | 0.00 | 90 | 1018.1 |
| 20260901004046 | 15 | 0 | 1.6 | 14.5 | 0.00 | 0.18 | 0.00 | 90 | 1018.1 |
| 20260901003546 | 15 | 0 | 1.6 | 14.5 | 0.00 | 0.18 | 0.00 | 90 | 1018.0 |
| 20260901003105 | 15 | 0 | 0.0 | 11.3 | 0.00 | 0.18 | 0.00 | 90 | 1018.0 |
| 20260901002547 | 15 | 0 | 0.0 | 9.7 | 0.00 | 0.18 | 0.00 | 90 | 1018.1 |
| 20260901002047 | 15 | 0 | 0.0 | 9.7 | 0.00 | 0.18 | 0.00 | 89 | 1018.0 |
| 20260901001621 | 15 | 0 | 0.0 | 9.7 | 0.00 | 0.18 | 0.00 | 89 | 1017.9 |
| 20260901001047 | 15 | 0 | 0.0 | 14.5 | 0.00 | 0.18 | 0.00 | 89 | 1017.8 |
| 20260901000546 | 15 | 0 | 0.0 | 14.5 | 0.00 | 0.18 | 0.00 | 89 | 1017.7 |
| 20260901000114 | 15 | 0 | 0.0 | 16.1 | 0.00 | 0.18 | 0.00 | 88 | 1017.8 |
| 20260831235547 | 15 | 0 | 1.6 | 16.1 | 0.00 | 0.18 | 0.00 | 88 | 1017.9 |
| 20260831235047 | 15 | 244 | 3.2 | 16.1 | 0.00 | 0.18 | 0.00 | 88 | 1018.0 |
| 20260831234606 | 15 | 0 | 1.6 | 14.5 | 0.00 | 0.18 | 0.00 | 88 | 1017.9 |
| 20260831234047 | 15 | 0 | 0.0 | 11.3 | 0.00 | 0.18 | 0.00 | 88 | 1018.0 |
| 20260831233546 | 15 | 0 | 0.0 | 6.4 | 0.00 | 0.18 | 0.00 | 88 | 1018.0 |
| 20260831233104 | 15 | 0 | 0.0 | 4.8 | 0.00 | 0.18 | 0.00 | 87 | 1017.8 |
| 20260831232546 | 15 | 0 | 0.0 | 6.4 | 0.00 | 0.18 | 0.00 | 88 | 1018.0 |
| 20260831232045 | 15 | 0 | 0.0 | 6.4 | 0.00 | 0.18 | 0.00 | 88 | 1017.9 |
| 20260831231600 | 15 | 234 | 0.0 | 8.0 | 0.00 | 0.18 | 0.00 | 88 | 1017.9 |
| 20260831231046 | 15 | 0 | 0.0 | 8.0 | 0.00 | 0.18 | 0.00 | 88 | 1017.8 |
| 20260831230545 | 15 | 0 | 0.0 | 8.0 | 0.00 | 0.18 | 0.00 | 88 | 1017.8 |
| 20260831230110 | 15 | 0 | 0.0 | 0.0 | 0.00 | 0.18 | 0.00 | 88 | 1017.7 |
| 20260831225546 | 15 | 0 | 0.0 | 0.0 | 0.00 | 0.18 | 0.00 | 87 | 1017.8 |
| 20260831225046 | 15 | 0 | 0.0 | 9.7 | 0.00 | 0.18 | 0.00 | 87 | 1017.8 |
| 20260831224558 | 15 | 0 | 0.0 | 9.7 | 0.00 | 0.18 | 0.00 | 87 | 1017.7 |
| 20260831224044 | 15 | 0 | 0.0 | 6.4 | 0.00 | 0.18 | 0.00 | 86 | 1017.7 |
| 20260831223547 | 15 | 0 | 0.0 | 11.3 | 0.00 | 0.18 | 0.00 | 86 | 1017.8 |
| 20260831223110 | 15 | 0 | 0.0 | 11.3 | 0.00 | 0.18 | 0.00 | 86 | 1017.8 |
| 20260831222545 | 15 | 0 | 0.0 | 11.3 | 0.00 | 0.18 | 0.00 | 86 | 1017.8 |
| 20260831222045 | 15 | 0 | 0.0 | 4.8 | 0.00 | 0.18 | 0.00 | 86 | 1017.7 |
| 20260831221605 | 15 | 0 | 0.0 | 4.8 | 0.00 | 0.18 | 0.00 | 85 | 1017.8 |
| 20260831221046 | 15 | 0 | 0.0 | 8.0 | 0.00 | 0.18 | 0.00 | 85 | 1017.8 |
| 20260831220546 | 16 | 0 | 0.0 | 8.0 | 0.00 | 0.18 | 0.00 | 84 | 1017.7 |
| 20260831220105 | 16 | 0 | 0.0 | 11.3 | 0.00 | 0.18 | 0.00 | 84 | 1017.7 |
| 20260831215544 | 16 | 0 | 0.0 | 11.3 | 0.00 | 0.18 | 0.18 | 84 | 1017.7 |
| 20260831215044 | 16 | 0 | 0.0 | 11.3 | 0.00 | 0.18 | 0.18 | 85 | 1017.7 |
| 20260831214601 | 16 | 223 | 0.0 | 6.4 | 0.00 | 0.18 | 0.18 | 85 | 1017.7 |
| 20260831214049 | 16 | 0 | 0.0 | 16.1 | 0.00 | 0.18 | 0.18 | 85 | 1017.6 |
| 20260831213544 | 16 | 0 | 0.0 | 16.1 | 0.00 | 0.18 | 0.18 | 86 | 1017.6 |
| 20260831213058 | 16 | 0 | 0.0 | 3.2 | 0.00 | 0.18 | 0.18 | 86 | 1017.7 |
| 20260831212545 | 16 | 0 | 0.0 | 6.4 | 0.00 | 0.18 | 0.18 | 87 | 1017.6 |
| 20260831212049 | 16 | 0 | 0.0 | 6.4 | 0.00 | 0.18 | 0.18 | 87 | 1017.6 |
| 20260831211559 | 16 | 0 | 0.0 | 4.8 | 0.00 | 0.18 | 0.18 | 88 | 1017.6 |
| 20260831211044 | 16 | 0 | 0.0 | 4.8 | 0.00 | 0.18 | 0.18 | 88 | 1017.5 |
| 20260831210547 | 16 | 0 | 0.0 | 4.8 | 0.00 | 0.18 | 0.18 | 88 | 1017.4 |
| 20260831210114 | 16 | 0 | 0.0 | 6.4 | 0.00 | 0.18 | 0.18 | 87 | 1017.3 |
| 20260831205546 | 16 | 0 | 0.0 | 6.4 | 0.00 | 0.18 | 0.18 | 87 | 1017.3 |
| 20260831205046 | 16 | 0 | 0.0 | 8.0 | 0.00 | 0.18 | 0.18 | 87 | 1017.3 |
| 20260831204559 | 16 | 0 | 0.0 | 8.0 | 0.00 | 0.18 | 0.18 | 86 | 1017.2 |
| 20260831204046 | 16 | 230 | 0.0 | 6.4 | 0.00 | 0.18 | 0.18 | 86 | 1017.2 |
| 20260831203544 | 16 | 0 | 0.0 | 6.4 | 0.00 | 0.18 | 0.18 | 86 | 1017.1 |
| 20260831203103 | 16 | 0 | 0.0 | 11.3 | 0.00 | 0.18 | 0.18 | 86 | 1017.0 |
| 20260831202546 | 16 | 0 | 0.0 | 11.3 | 0.00 | 0.18 | 0.18 | 86 | 1016.9 |
| 20260831202044 | 16 | 0 | 0.0 | 11.3 | 0.00 | 0.18 | 0.18 | 86 | 1016.7 |
| 20260831201606 | 16 | 0 | 0.0 | 0.0 | 0.00 | 0.18 | 0.18 | 86 | 1016.7 |
| 20260831201047 | 16 | 0 | 0.0 | 0.0 | 0.00 | 0.18 | 0.18 | 85 | 1016.6 |
| 20260831200547 | 16 | 0 | 0.0 | 4.8 | 0.00 | 0.18 | 0.18 | 86 | 1016.6 |
| 20260831200059 | 16 | 0 | 0.0 | 6.4 | 0.00 | 0.18 | 0.18 | 86 | 1016.6 |
| 20260831195545 | 16 | 0 | 0.0 | 9.7 | 0.00 | 0.18 | 0.18 | 86 | 1016.6 |
| 20260831195044 | 16 | 0 | 0.0 | 9.7 | 0.00 | 0.18 | 0.18 | 87 | 1016.5 |
| 20260831194614 | 16 | 0 | 0.0 | 9.7 | 0.00 | 0.18 | 0.18 | 87 | 1016.4 |
| 20260831194047 | 16 | 0 | 0.0 | 1.6 | 0.00 | 0.18 | 0.18 | 87 | 1016.3 |
| 20260831193543 | 16 | 0 | 0.0 | 0.0 | 0.00 | 0.18 | 0.18 | 87 | 1016.3 |
| 20260831193107 | 16 | 0 | 0.0 | 0.0 | 0.00 | 0.18 | 0.18 | 87 | 1016.3 |
| 20260831192546 | 16 | 0 | 0.0 | 0.0 | 0.00 | 0.18 | 0.18 | 87 | 1016.2 |
| 20260831192045 | 16 | 0 | 0.0 | 0.0 | 0.00 | 0.18 | 0.18 | 88 | 1016.1 |
| 20260831191605 | 16 | 0 | 0.0 | 0.0 | 0.00 | 0.18 | 0.18 | 88 | 1016.1 |
| 20260831191045 | 16 | 0 | 0.0 | 0.0 | 0.00 | 0.18 | 0.18 | 88 | 1016.1 |
| 20260831190546 | 16 | 0 | 0.0 | 0.0 | 0.00 | 0.18 | 0.18 | 88 | 1016.0 |
| 20260831190108 | 16 | 0 | 0.0 | 0.0 | 0.00 | 0.18 | 0.18 | 88 | 1015.9 |
| 20260831185545 | 16 | 0 | 0.0 | 0.0 | 0.00 | 0.18 | 0.18 | 88 | 1015.8 |
| 20260831185044 | 16 | 0 | 0.0 | 0.0 | 0.00 | 0.18 | 0.18 | 87 | 1015.7 |
| 20260831184605 | 16 | 0 | 0.0 | 0.0 | 0.00 | 0.18 | 0.18 | 87 | 1015.6 |
| 20260831184047 | 16 | 0 | 0.0 | 6.4 | 0.00 | 0.18 | 0.18 | 86 | 1015.5 |
| 20260831183546 | 16 | 0 | 0.0 | 11.3 | 0.00 | 0.18 | 0.18 | 85 | 1015.4 |
| 20260831183105 | 16 | 0 | 0.0 | 11.3 | 0.00 | 0.18 | 0.18 | 85 | 1015.2 |
| 20260831182545 | 16 | 0 | 0.0 | 6.4 | 0.00 | 0.18 | 0.18 | 85 | 1015.2 |
| 20260831182046 | 16 | 0 | 0.0 | 0.0 | 0.00 | 0.18 | 0.18 | 84 | 1015.1 |
| 20260831181600 | 16 | 0 | 0.0 | 6.4 | 0.00 | 0.18 | 0.18 | 84 | 1015.0 |
| 20260831181046 | 16 | 0 | 0.0 | 9.7 | 0.00 | 0.18 | 0.18 | 84 | 1015.0 |
| 20260831180546 | 16 | 225 | 0.0 | 9.7 | 0.00 | 0.18 | 0.18 | 84 | 1014.7 |
| 20260831180111 | 16 | 0 | 0.0 | 12.9 | 0.00 | 0.18 | 0.18 | 84 | 1014.7 |
| 20260831175548 | 16 | 0 | 0.0 | 12.9 | 0.00 | 0.18 | 0.18 | 83 | 1014.7 |
| 20260831175047 | 17 | 0 | 0.0 | 20.9 | 0.00 | 0.18 | 0.18 | 83 | 1014.6 |
| 20260831174605 | 17 | 227 | 1.6 | 20.9 | 0.00 | 0.18 | 0.18 | 82 | 1014.5 |
| 20260831174050 | 17 | 0 | 1.6 | 16.1 | 0.00 | 0.18 | 0.18 | 82 | 1014.5 |
| 20260831173546 | 17 | 0 | 3.2 | 22.5 | 0.00 | 0.18 | 0.18 | 81 | 1014.4 |
| 20260831173130 | 17 | 0 | 1.6 | 22.5 | 0.00 | 0.18 | 0.18 | 80 | 1014.3 |
| 20260831172547 | 17 | 248 | 4.8 | 19.3 | 0.00 | 0.18 | 0.18 | 80 | 1014.3 |
| 20260831172047 | 17 | 239 | 0.0 | 22.5 | 0.00 | 0.18 | 0.18 | 81 | 1014.2 |
| 20260831171558 | 17 | 0 | 1.6 | 22.5 | 0.00 | 0.18 | 0.18 | 79 | 1014.0 |
| 20260831171046 | 17 | 251 | 0.0 | 17.7 | 0.00 | 0.18 | 0.18 | 79 | 1014.0 |
| 20260831170545 | 17 | 0 | 3.2 | 19.3 | 0.00 | 0.18 | 0.18 | 78 | 1013.8 |
| 20260831170110 | 17 | 0 | 1.6 | 24.1 | 0.00 | 0.18 | 0.18 | 79 | 1013.9 |
| 20260831165544 | 17 | 257 | 1.6 | 24.1 | 0.00 | 0.18 | 0.18 | 80 | 1013.9 |
| 20260831165044 | 17 | 0 | 3.2 | 24.1 | 0.00 | 0.18 | 0.18 | 81 | 1013.7 |
| 20260831164612 | 17 | 236 | 1.6 | 16.1 | 0.00 | 0.18 | 0.18 | 84 | 1013.7 |
| 20260831164050 | 17 | 0 | 1.6 | 14.5 | 0.00 | 0.18 | 0.18 | 85 | 1013.5 |
| 20260831163546 | 17 | 0 | 0.0 | 9.7 | 0.00 | 0.18 | 0.18 | 85 | 1013.4 |
| 20260831163109 | 17 | 0 | 0.0 | 9.7 | 0.00 | 0.18 | 0.18 | 85 | 1013.4 |
| 20260831162547 | 17 | 0 | 0.0 | 9.7 | 0.00 | 0.18 | 0.18 | 85 | 1013.4 |
| 20260831162046 | 17 | 0 | 0.0 | 24.1 | 0.00 | 0.18 | 0.18 | 85 | 1013.4 |
| 20260831161606 | 17 | 0 | 0.0 | 24.1 | 0.00 | 0.18 | 0.18 | 84 | 1013.4 |
| 20260831161044 | 17 | 215 | 6.4 | 25.7 | 0.00 | 0.18 | 0.18 | 83 | 1013.4 |
| 20260831160545 | 17 | 237 | 1.6 | 25.7 | 0.00 | 0.18 | 0.18 | 84 | 1013.4 |
| 20260831160105 | 17 | 0 | 4.8 | 25.7 | 0.00 | 0.18 | 0.18 | 82 | 1013.4 |
| 20260831155546 | 17 | 258 | 3.2 | 12.9 | 0.00 | 0.18 | 0.18 | 85 | 1013.4 |
| 20260831155052 | 17 | 0 | 1.6 | 12.9 | 0.00 | 0.18 | 0.18 | 87 | 1013.3 |
| 20260831154636 | 17 | 0 | 1.6 | 11.3 | 0.00 | 0.18 | 0.18 | 87 | 1013.4 |
| 20260831154044 | 17 | 0 | 0.0 | 19.3 | 0.00 | 0.18 | 0.18 | 89 | 1013.2 |
| 20260831153546 | 17 | 0 | 0.0 | 19.3 | 0.00 | 0.18 | 0.18 | 89 | 1013.4 |
| 20260831153105 | 17 | 229 | 1.6 | 19.3 | 0.00 | 0.18 | 0.18 | 89 | 1013.3 |
| 20260831152545 | 16 | 220 | 0.0 | 9.7 | 0.00 | 0.18 | 0.18 | 90 | 1013.1 |
| 20260831152046 | 16 | 220 | 0.0 | 8.0 | 0.00 | 0.18 | 0.18 | 90 | 1013.2 |
| 20260831151607 | 16 | 0 | 0.0 | 8.0 | 0.08 | 0.18 | 0.18 | 91 | 1013.0 |
| 20260831151046 | 16 | 0 | 0.0 | 16.1 | 0.13 | 0.18 | 0.18 | 91 | 1013.1 |
| 20260831150546 | 17 | 0 | 0.0 | 16.1 | 0.13 | 0.18 | 0.18 | 90 | 1013.0 |
| 20260831150107 | 17 | 0 | 0.0 | 14.5 | 0.13 | 0.18 | 0.18 | 91 | 1013.0 |
| 20260831145545 | 17 | 0 | 1.6 | 11.3 | 0.13 | 0.18 | 0.18 | 93 | 1013.1 |
| 20260831145046 | 17 | 0 | 0.0 | 0.0 | 0.13 | 0.18 | 0.18 | 93 | 1013.1 |
| 20260831144556 | 16 | 0 | 0.0 | 6.4 | 0.13 | 0.18 | 0.18 | 93 | 1012.9 |
| 20260831144046 | 16 | 0 | 0.0 | 6.4 | 0.13 | 0.18 | 0.18 | 93 | 1012.6 |
| 20260831143551 | 16 | 0 | 0.0 | 6.4 | 0.13 | 0.18 | 0.18 | 93 | 1012.5 |
| 20260831143110 | 16 | 0 | 0.0 | 8.0 | 0.13 | 0.18 | 0.18 | 92 | 1012.8 |
| 20260831142547 | 16 | 227 | 0.0 | 8.0 | 0.13 | 0.18 | 0.18 | 91 | 1012.7 |
| 20260831142047 | 16 | 0 | 0.0 | 6.4 | 0.10 | 0.15 | 0.15 | 89 | 1012.5 |
| 20260831141608 | 17 | 0 | 0.0 | 6.4 | 0.03 | 0.08 | 0.08 | 88 | 1012.4 |
| 20260831141046 | 17 | 0 | 0.0 | 6.4 | 0.00 | 0.03 | 0.03 | 88 | 1012.3 |
| 20260831140546 | 17 | 0 | 0.0 | 6.4 | 0.00 | 0.03 | 0.03 | 87 | 1012.2 |